Terug naar catalogus

IRIDIUM 33 DEB

ActiefPO
NORAD 35915·DEBRIS·🇺🇸 United States

Gelanceerd Sep 14, 1997 vanaf Baikonur Cosmodrome

Loading…

Volgende Passages (komende 24 uur)

TLE

VersSource: Space-Track

Epoch: Sep 14, 2026, 03:43 UTC

1 35915U 97051TY  26257.15488368  .00009246  00000-0  10149-2 0  9998
2 35915  86.3434 216.2727 0008312 332.6065  27.4721 14.87558953121720

Volg IRIDIUM 33 DEB in realtime met AllMySat

Download on the App Store